Wetbulb
70.39 71.31 72.04 71.59 70.98 70.73 70.57 70.74 71.12 71.14 71.21 71.61 71.61 71.22 71.00 71.70 71.88 71.79 71.70 71.13 70.69 69.74 69.19 68.55 68.42 68.19 67.52 66.59 65.99 66.42 64.47 63.88
68.96 69.96 70.75 69.93 69.77 70.17 70.24 70.36 70.45 70.54 70.73 70.77 70.32 70.60 70.88 71.07 71.03 71.30 71.11 70.67 70.44 69.38 68.91 68.66 68.65 68.20 67.22 66.49 66.04 66.25 62.83 63.67
67.90 68.96 70.02 69.80 69.39 70.46 70.41 70.74 70.45 70.36 70.44 70.40 67.95 68.60 69.14 70.34 69.87 70.17 70.27 69.67 69.47 69.11 68.50 68.67 68.26 68.03 67.59 66.99 66.66 63.63 62.80 65.50
67.95 67.59 68.17 69.37 71.24 69.10 68.60 69.71 68.60 69.03 69.18 68.74 68.04 66.98 67.34 69.80 69.24 69.19 69.41 68.94 68.78 68.64 68.00 68.06 67.86 66.20 65.71 66.93 64.82 63.59 63.58 64.83
68.16 67.65 67.83 67.70 67.54 68.44 68.28 68.33 68.19 68.17 67.76 68.06 67.12 66.90 66.52 66.19 66.45 67.86 67.13 68.35 66.84 67.41 67.09 66.71 66.09 65.31 65.16 64.80 64.44 63.30 63.51 64.78
68.75 68.58 68.26 67.69 67.73 67.88 67.92 68.18 67.54 67.52 67.86 67.57 66.04 65.27 64.86 64.53 66.56 66.67 66.53 66.06 65.27 64.33 64.86 65.35 65.18 65.51 65.75 65.31 64.82 64.24 63.88 65.09
68.94 69.47 68.60 68.70 68.12 68.41 67.12 66.88 67.86 67.71 67.73 68.30 67.72 65.70 64.94 64.83 65.68 66.86 66.81 64.89 64.45 63.02 63.74 64.65 64.88 65.08 65.61 65.35 65.67 65.55 65.62 65.86
66.81 69.14 69.65 69.02 68.07 68.48 67.76 67.50 67.24 66.84 67.21 68.08 68.72 67.19 66.03 66.10 65.00 65.70 65.95 64.80 64.07 63.29 63.64 64.17 64.54 65.32 65.29 65.36 65.07 65.19 65.24 65.16
60.85 62.66 68.99 69.27 68.46 68.04 69.24 69.62 68.58 66.40 66.28 66.92 69.02 67.79 66.49 66.88 65.76 65.12 64.55 64.96 63.59 63.29 62.61 62.55 62.98 64.01 64.82 64.76 64.95 64.50 64.62 64.69
58.92 60.24 60.22 61.46 65.24 69.28 69.00 68.14 69.21 68.38 67.69 67.09 68.25 68.61 67.46 66.34 66.78 66.00 65.48 64.67 64.33 63.17 62.63 61.81 62.45 62.30 62.36 62.58 63.70 64.12 64.48 64.62
54.47 56.28 58.34 59.77 60.82 63.11 65.20 68.24 69.14 69.03 68.12 68.46 66.78 68.36 68.57 67.19 66.09 66.38 65.95 65.35 64.27 64.05 63.49 62.88 61.87 62.07 62.06 61.91 62.55 62.52 63.67 65.86
52.38 52.20 53.56 56.51 57.87 59.44 63.13 62.42 63.20 66.14 67.39 67.03 67.65 68.54 68.61 68.17 67.03 66.23 66.53 65.28 64.40 63.23 62.57 62.64 62.48 62.15 64.25 63.93 61.47 63.26 63.86 63.44
50.96 50.94 50.73 51.68 53.16 54.79 58.13 58.18 59.51 58.68 58.19 59.61 58.36 59.07 66.76 67.41 67.74 66.23 66.24 66.08 65.07 63.55 62.60 61.85 62.35 61.77 60.26 61.76 61.38 60.71 61.51 63.14
50.52 49.97 50.28 50.20 50.23 51.97 54.57 56.01 56.77 55.48 55.18 55.74 56.42 57.08 56.63 60.88 65.09 66.77 67.14 66.77 65.57 64.28 62.81 62.90 62.11 61.49 61.55 58.01 57.15 58.27 61.08 61.77
49.50 49.12 48.91 49.54 49.29 49.19 49.78 50.22 50.71 50.24 50.44 52.12 53.97 54.80 54.92 54.51 54.48 54.37 61.43 66.86 66.08 65.13 64.41 62.65 62.76 61.15 61.71 60.31 55.79 54.97 55.66 58.68
47.99 48.40 47.91 48.27 48.62 47.45 45.71 45.81 45.72 47.44 48.02 49.01 51.06 52.93 53.41 53.16 52.49 53.84 54.91 55.57 58.86 65.17 65.09 64.45 63.81 62.23 60.95 62.65 62.33 58.57 55.87 55.97
46.17 47.83 47.96 46.80 46.36 46.34 45.64 43.75 45.45 46.65 46.84 46.63 47.35 49.30 50.90 52.28 52.29 52.36 52.52 53.48 55.04 56.01 59.83 64.56 64.41 63.30 62.91 62.41 60.65 61.56 61.01 58.32
44.47 45.52 46.20 46.74 45.86 44.54 44.33 43.23 43.22 43.94 44.71 44.70 45.38 46.39 47.52 49.41 50.31 51.31 52.42 52.90 53.68 54.84 56.79 57.82 64.64 64.72 64.26 63.46 62.01 60.30 59.76 59.00
45.12 44.79 44.59 44.82 45.49 44.89 44.09 43.13 42.61 43.02 43.25 43.67 43.74 44.23 44.49 45.49 46.89 48.26 49.47 50.86 52.21 53.76 55.34 54.72 56.21 59.26 64.77 64.50 64.15 63.27 62.71 61.01
43.99 44.34 44.61 44.47 44.42 44.10 44.50 44.15 43.15 43.04 43.25 43.39 43.26 43.48 43.81 45.08 45.46 46.65 47.66 48.97 50.47 52.10 53.46 53.48 52.88 52.95 53.21 61.33 64.82 64.56 64.31 63.27
MSLP
1016.01 1016.22 1016.53 1016.58 1016.69 1017.05 1017.44 1017.84 1018.21 1018.39 1018.47 1018.64 1018.80 1018.97 1019.15 1019.30 1019.42 1019.48 1019.71 1019.99 1020.16 1020.33 1020.45 1020.53 1020.56 1020.50 1020.33 1020.27 1020.27 1020.31 1020.41 1020.55
1016.14 1016.47 1016.65 1016.97 1017.21 1017.22 1017.42 1017.70 1018.07 1018.47 1018.78 1018.95 1019.08 1019.19 1019.31 1019.46 1019.59 1019.69 1019.80 1019.95 1020.14 1020.34 1020.45 1020.56 1020.61 1020.61 1020.47 1020.19 1020.03 1020.03 1019.89 1020.13
1016.10 1016.53 1016.75 1016.85 1017.22 1017.58 1017.76 1017.81 1018.00 1018.25 1018.60 1018.94 1019.26 1019.40 1019.50 1019.55 1019.65 1019.74 1019.90 1020.06 1020.14 1020.22 1020.37 1020.47 1020.52 1020.52 1020.43 1020.21 1019.88 1019.80 1019.75 1019.58
1015.87 1016.37 1016.65 1016.98 1016.97 1017.49 1017.81 1018.21 1018.35 1018.35 1018.40 1018.61 1018.92 1019.19 1019.38 1019.40 1019.52 1019.63 1019.81 1020.03 1020.20 1020.30 1020.34 1020.39 1020.44 1020.45 1020.31 1020.17 1020.02 1019.64 1019.29 1019.22
1015.12 1015.63 1016.34 1016.62 1016.81 1017.37 1017.77 1017.89 1018.18 1018.51 1018.56 1018.55 1018.54 1018.54 1018.91 1019.15 1019.45 1019.66 1019.84 1019.93 1020.15 1020.26 1020.36 1020.41 1020.39 1020.34 1020.11 1019.97 1019.75 1019.58 1019.24 1018.88
1014.71 1014.91 1015.49 1016.19 1016.69 1017.00 1017.07 1017.50 1017.98 1018.14 1018.20 1018.52 1018.79 1018.73 1018.58 1018.63 1019.01 1019.30 1019.56 1019.64 1019.93 1020.07 1020.22 1020.19 1020.14 1019.93 1019.75 1019.66 1019.43 1019.21 1018.96 1018.66
1014.67 1014.80 1015.12 1015.21 1016.10 1016.47 1016.76 1016.96 1017.21 1017.53 1017.89 1018.00 1018.22 1018.54 1018.71 1018.60 1018.50 1018.62 1018.87 1019.19 1019.40 1019.58 1019.74 1019.71 1019.71 1019.58 1019.31 1019.20 1019.02 1018.82 1018.60 1018.47
1015.65 1015.11 1014.85 1015.02 1015.46 1015.99 1016.38 1016.54 1016.72 1016.99 1017.25 1017.36 1017.58 1017.86 1018.00 1018.22 1018.30 1018.38 1018.37 1018.43 1018.56 1018.69 1018.93 1019.02 1019.07 1018.95 1018.82 1018.62 1018.46 1018.31 1018.10 1017.91
1016.67 1016.24 1015.76 1015.38 1015.30 1015.46 1015.97 1016.08 1016.45 1016.67 1016.87 1016.94 1017.04 1017.25 1017.52 1017.68 1017.93 1017.81 1017.96 1018.00 1018.10 1018.07 1018.07 1018.28 1018.49 1018.47 1018.43 1018.11 1017.92 1017.75 1017.61 1017.51
1017.85 1017.54 1017.11 1016.79 1016.53 1015.69 1015.52 1015.78 1015.93 1016.15 1016.19 1016.36 1016.71 1016.78 1016.89 1017.15 1017.40 1017.67 1017.42 1017.48 1017.65 1017.84 1017.88 1017.92 1017.85 1017.77 1017.70 1017.58 1017.57 1017.32 1017.03 1016.94
1019.05 1018.67 1018.07 1017.81 1017.34 1016.92 1016.78 1016.57 1016.45 1016.04 1015.87 1016.02 1016.08 1016.33 1016.44 1016.62 1016.81 1016.84 1016.94 1017.10 1017.21 1017.39 1017.44 1017.50 1017.42 1017.24 1017.05 1016.85 1016.78 1016.73 1016.63 1016.17
1020.19 1019.80 1019.23 1018.79 1018.26 1017.82 1017.30 1017.46 1017.69 1017.38 1017.23 1016.99 1016.30 1015.76 1015.74 1015.97 1016.09 1016.16 1016.27 1016.64 1016.75 1016.88 1016.92 1016.89 1016.85 1016.65 1016.57 1016.26 1016.12 1015.90 1015.65 1015.53
1020.88 1020.49 1020.53 1019.87 1019.24 1018.92 1018.57 1019.00 1018.99 1018.98 1018.79 1018.62 1018.37 1017.84 1016.92 1015.52 1015.16 1015.70 1015.72 1016.14 1016.24 1016.41 1016.49 1016.50 1016.41 1016.37 1016.61 1016.15 1015.79 1015.45 1015.15 1014.66
1022.04 1021.90 1021.82 1021.56 1021.27 1020.90 1020.60 1020.20 1019.96 1019.90 1019.90 1019.73 1018.94 1018.39 1018.04 1017.70 1017.06 1015.73 1015.24 1015.59 1015.77 1015.83 1016.02 1016.16 1015.82 1015.83 1016.13 1016.20 1015.67 1014.98 1014.10 1013.73
1023.04 1023.06 1022.93 1022.89 1022.65 1022.17 1021.55 1021.00 1020.58 1020.26 1020.33 1019.83 1019.86 1019.51 1018.81 1019.24 1018.40 1018.37 1017.30 1016.14 1014.93 1014.98 1015.13 1015.36 1015.26 1015.10 1015.07 1015.23 1015.19 1014.42 1013.78 1012.75
1023.73 1023.70 1023.65 1023.60 1023.45 1023.22 1023.05 1022.93 1022.68 1022.62 1022.16 1021.69 1020.88 1020.34 1019.97 1019.15 1018.96 1018.92 1018.44 1017.63 1017.04 1015.74 1014.35 1014.11 1014.29 1014.29 1014.56 1014.25 1013.64 1013.54 1013.47 1012.59
1024.40 1024.42 1024.28 1024.10 1023.98 1024.00 1024.00 1023.93 1023.73 1023.34 1022.72 1022.11 1021.64 1021.10 1020.66 1020.30 1019.37 1019.40 1018.65 1018.06 1017.58 1017.16 1015.92 1014.27 1013.27 1013.17 1013.17 1013.33 1013.30 1012.97 1012.83 1012.91
1024.69 1024.73 1024.73 1024.55 1024.42 1024.47 1024.48 1024.53 1024.32 1023.82 1023.42 1022.84 1022.26 1021.73 1021.28 1020.98 1020.79 1020.04 1019.45 1018.04 1018.00 1017.20 1016.66 1015.57 1013.61 1012.47 1011.92 1011.87 1011.90 1011.87 1011.70 1011.89
1024.75 1024.92 1024.99 1024.66 1024.65 1024.70 1024.75 1024.72 1024.68 1024.57 1024.21 1023.71 1023.01 1022.31 1021.57 1020.86 1020.36 1020.11 1019.70 1018.91 1017.88 1016.92 1016.47 1016.34 1015.14 1013.65 1011.60 1010.81 1010.50 1010.37 1010.51 1010.41
1024.95 1024.98 1025.07 1024.85 1024.81 1024.78 1024.78 1024.73 1024.68 1024.68 1024.53 1024.13 1023.63 1023.12 1022.45 1021.48 1020.80 1020.14 1019.22 1018.77 1017.77 1018.04 1016.90 1016.61 1015.79 1015.24 1013.16 1011.55 1010.11 1009.35 1009.25 1009.08
Wind_Speed
7 7 8 10 12 11 10 10 7 7 7 7 7 7 7 6 6 7 8 7 7 8 7 6 4 2 5 7 7 6 4 3
7 6 6 5 5 10 10 10 9 8 6 5 5 6 6 6 6 6 7 8 8 8 7 6 5 4 7 10 9 8 5 2
8 7 6 7 6 6 8 10 10 10 8 7 4 3 4 5 6 7 7 7 7 9 9 7 6 6 8 10 11 3 5 4
10 7 7 6 7 6 6 4 2 4 5 6 5 5 5 7 7 10 9 7 7 8 9 9 6 4 4 8 5 6 5 2
13 12 8 7 5 5 3 3 4 3 5 5 6 5 5 4 3 3 3 7 3 5 4 4 5 4 5 4 6 6 5 1
14 13 12 8 5 5 7 5 4 4 5 6 3 3 4 5 4 6 5 4 5 5 3 5 7 7 8 6 6 6 4 3
14 13 12 11 8 6 6 6 7 7 6 6 6 5 4 4 5 6 6 5 6 5 6 6 7 8 9 6 8 7 6 3
5 9 12 10 7 7 6 5 7 6 6 7 10 6 5 4 5 5 6 7 7 8 7 8 8 8 9 10 9 6 6 6
17 16 6 6 8 6 3 5 5 6 5 7 10 8 7 6 5 5 5 7 8 7 8 5 6 6 10 9 9 9 7 7
17 15 15 13 12 2 3 2 2 4 6 5 7 10 8 6 4 4 5 4 7 5 7 7 7 7 6 6 7 6 9 9
18 17 16 15 13 9 10 9 6 5 3 4 7 7 10 9 6 5 6 4 4 5 5 5 7 7 6 6 6 6 8 9
17 16 19 15 10 8 7 7 9 11 12 11 8 6 10 9 8 8 6 4 5 5 5 5 5 5 8 8 6 9 9 8
19 19 19 13 14 11 5 8 8 9 10 15 16 15 14 9 8 6 6 8 6 6 5 7 7 3 3 9 7 6 8 10
16 17 17 14 10 10 5 6 6 6 8 8 14 15 14 17 13 9 12 10 9 6 6 7 6 5 9 2 7 6 10 10
13 14 14 13 13 9 9 5 7 9 13 12 12 14 15 14 14 14 15 10 10 11 9 9 11 5 10 8 3 8 2 5
8 10 12 12 12 11 12 8 8 7 8 9 10 12 13 14 14 13 12 9 15 13 8 11 11 13 4 9 15 5 5 6
7 8 10 8 9 11 8 10 6 6 7 10 11 11 13 13 13 13 13 9 11 14 17 13 11 12 12 11 7 11 14 12
7 7 7 7 7 8 9 9 10 9 12 10 9 8 8 11 12 10 8 9 11 11 15 16 16 13 12 13 13 11 12 11
4 6 6 7 7 6 7 7 7 9 10 9 11 11 11 13 14 13 10 10 10 13 12 15 14 15 15 13 13 14 14 14
5 6 6 6 6 6 5 6 3 3 5 6 7 8 10 14 14 14 15 16 13 9 7 9 12 14 17 18 13 13 13 14
Wind_Direction
117 122 127 131 136 137 138 139 140 144 145 145 141 139 144 146 146 145 139 139 142 146 152 160 174 233 295 304 303 308 294 276
125 125 124 118 136 142 145 147 148 150 152 151 151 158 162 163 163 166 161 160 163 167 171 176 193 235 281 295 297 308 300 165
136 146 152 145 133 150 150 156 157 159 160 165 152 177 186 176 186 186 184 183 185 185 189 196 216 253 268 276 287 289 278 269
150 157 161 161 158 146 149 162 165 173 170 168 180 204 197 192 202 186 192 194 204 210 209 213 226 244 259 261 272 273 272 245
164 158 166 179 144 157 167 168 170 201 209 185 194 199 197 200 170 186 183 200 203 213 224 228 237 239 250 240 242 263 271 213
167 163 161 184 148 176 174 167 184 193 196 196 208 240 210 192 173 183 187 186 200 206 211 225 235 243 245 246 238 244 254 271
172 165 169 182 159 182 183 185 183 187 200 194 186 212 242 231 190 184 190 184 197 201 207 218 228 238 249 236 244 240 243 246
11 183 172 179 187 173 182 200 188 191 190 198 194 206 211 209 227 197 198 194 200 202 203 214 224 226 237 248 247 245 250 261
25 24 342 184 189 190 188 185 189 192 203 202 196 197 213 220 224 227 197 210 210 210 217 211 222 226 234 237 243 250 248 245
29 27 25 24 11 333 212 232 239 194 213 197 199 208 203 217 213 241 254 198 215 208 217 226 226 216 219 226 235 232 236 236
35 28 30 24 16 17 25 358 348 298 218 215 221 201 212 212 221 228 233 247 239 214 213 215 225 230 230 234 231 230 234 236
40 35 27 26 20 7 24 18 13 12 5 358 313 227 206 204 217 222 221 234 245 249 235 237 225 217 240 245 232 238 237 230
33 31 25 21 22 9 18 17 17 15 5 359 356 359 338 245 209 223 224 225 229 225 234 227 255 234 255 256 263 245 249 246
39 34 29 26 18 13 14 351 20 26 15 10 21 6 6 4 337 260 219 229 234 229 222 249 252 197 232 223 268 281 251 237
45 42 35 27 22 19 14 7 17 13 5 10 9 10 21 10 8 359 345 289 235 227 228 215 251 238 222 216 251 238 269 235
39 49 43 37 24 26 28 29 17 357 353 347 357 5 14 16 11 3 358 351 350 300 238 230 235 248 244 231 238 207 232 299
32 49 38 37 37 31 27 23 4 348 353 356 359 356 359 4 13 357 357 352 351 332 335 277 231 233 238 240 239 247 250 250
41 54 49 35 42 38 31 21 4 2 356 357 351 350 352 352 348 348 331 340 342 337 333 322 286 247 237 234 235 238 242 242
67 62 52 41 48 44 33 27 14 2 354 352 350 347 347 346 349 344 329 332 338 348 339 341 331 327 264 242 235 236 240 246
67 62 70 42 44 33 38 27 27 359 341 343 346 344 338 339 337 339 343 338 342 324 330 330 337 329 342 318 260 244 239 237